Date String (YYYY-MM-DD hh:mm:ss) UTC,Instrument flags,Ambient pressure (hPa),Sample flow (lpm),Bypass flow (lpm),Sample temperature (°C),Ambient temperature (°C),ASC tube jacket temperature (°C),LED temperature (°C),Box temperature (°C),Sample RH (%),Span deviation,Mass concentration (μg/m³),Mass concentration (μg/m³),Mass concentration (μg/m³)
DateTimeUTC,F1_M11,P_M11,Q1_M11,Q2_M11,T1_M11,T2_M11,T3_M11,T4_M11,T5_M11,U1_M11,ZSPAN_M11,X0_M11,X2_M11,X1_M11
2022-12-13 00:00:00,,0809.1,5.00,0.00,23.9,22.5,00.0,32.8,25.9,09.4,0000.0,0012.05,0005.03,0004.23
2022-12-13 00:01:00,,0809.1,5.01,0.00,24.0,22.5,00.0,32.8,25.9,09.5,0000.0,0012.28,0005.05,0004.26
2022-12-13 00:02:00,,0809.0,5.00,0.00,23.9,22.5,00.0,32.8,25.9,09.5,0000.0,0012.30,0005.09,0004.31
2022-12-13 00:03:00,,0809.0,4.99,0.00,24.0,22.5,00.0,32.8,25.9,09.5,0000.0,0011.84,0005.14,0004.37
2022-12-13 00:04:00,,0809.1,4.99,0.00,24.0,22.5,00.0,32.8,25.9,09.5,0000.0,0010.68,0005.19,0004.43
2022-12-13 00:05:00,,0809.1,5.01,0.00,23.9,22.5,00.0,32.8,25.9,09.6,0000.0,0011.54,0005.20,0004.46
2022-12-13 00:06:00,,0809.1,5.01,0.00,23.9,22.5,00.0,32.8,25.9,09.6,0000.0,0012.14,0005.25,0004.49
2022-12-13 00:07:00,,0809.1,5.00,0.00,23.9,22.5,00.0,32.8,25.9,09.6,0000.0,0012.51,0005.31,0004.54
2022-12-13 00:08:00,,0809.1,4.99,0.00,23.9,22.5,00.0,32.8,25.9,09.6,0000.0,0012.89,0005.34,0004.58
2022-12-13 00:09:00,,0809.0,5.00,0.00,23.9,22.5,00.0,32.8,25.9,09.6,0000.0,0013.27,0005.39,0004.61
2022-12-13 00:10:00,,0809.1,5.01,0.00,23.9,22.5,00.0,32.8,25.9,09.6,0000.0,0013.06,0005.40,0004.64
2022-12-13 00:11:00,,0809.1,5.01,0.00,23.9,22.5,00.0,32.8,25.9,09.7,0000.0,0013.22,0005.46,0004.66
2022-12-13 00:12:00,,0809.0,5.00,0.00,23.9,22.5,00.0,32.8,25.9,09.7,0000.0,0012.94,0005.53,0004.68
2022-12-13 00:13:00,,0809.0,5.01,0.00,23.9,22.5,00.0,32.8,25.9,09.6,0000.0,0013.08,0005.59,0004.68
2022-12-13 00:14:00,,0809.0,5.00,0.00,23.9,22.4,00.0,32.8,25.8,09.6,0000.0,0013.55,0005.61,0004.68
2022-12-13 00:15:00,,0809.1,4.99,0.00,23.9,22.3,00.0,32.8,25.7,09.6,0000.0,0013.61,0005.59,0004.68
2022-12-13 00:16:00,,0809.1,5.01,0.00,23.9,22.3,00.0,32.7,25.7,09.7,0000.0,0012.48,0005.59,0004.68
2022-12-13 00:17:00,,0809.0,5.01,0.00,23.8,22.2,00.0,32.7,25.6,09.6,0000.0,0012.35,0005.60,0004.68
2022-12-13 00:18:00,,0809.1,4.99,0.00,23.8,22.2,00.0,32.7,25.6,09.7,0000.0,0012.46,0005.60,0004.70
2022-12-13 00:19:00,,0809.1,5.00,0.00,23.8,22.1,00.0,32.7,25.6,09.7,0000.0,0012.27,0005.63,0004.71
2022-12-13 00:20:00,,0809.1,5.01,0.00,23.8,22.0,00.0,32.7,25.6,09.7,0000.0,0012.20,0005.63,0004.71
2022-12-13 00:21:00,,0809.1,5.00,0.00,23.8,22.0,00.0,32.7,25.6,09.8,0000.0,0011.80,0005.62,0004.71
2022-12-13 00:22:00,,0809.1,4.99,0.00,23.7,22.0,00.0,32.7,25.5,09.8,0000.0,0011.46,0005.55,0004.69
2022-12-13 00:23:00,,0809.0,5.01,0.00,23.7,21.9,00.0,32.7,25.5,09.7,0000.0,0011.80,0005.51,0004.70
2022-12-13 00:24:00,,0809.1,5.01,0.00,23.7,21.9,00.0,32.7,25.5,09.7,0000.0,0012.07,0005.48,0004.70
2022-12-13 00:25:00,,0809.1,4.98,0.00,23.7,21.8,00.0,32.6,25.5,09.7,0000.0,0012.98,0005.46,0004.70
2022-12-13 00:26:00,,0809.2,5.00,0.00,23.7,21.8,00.0,32.6,25.5,09.8,0000.0,0012.79,0005.48,0004.70
2022-12-13 00:27:00,,0809.2,5.00,0.00,23.7,21.8,00.0,32.6,25.5,09.8,0000.0,0013.41,0005.53,0004.71
2022-12-13 00:28:00,,0809.2,5.01,0.00,23.6,21.8,00.0,32.6,25.5,09.9,0000.0,0013.35,0005.56,0004.71
2022-12-13 00:29:00,,0809.2,5.00,0.00,23.6,21.8,00.0,32.6,25.5,09.9,0000.0,0012.99,0005.52,0004.70
2022-12-13 00:30:00,,0809.2,4.99,0.00,23.6,21.9,00.0,32.6,25.5,09.9,0000.0,0012.96,0005.55,0004.69
2022-12-13 00:31:00,,0809.2,5.00,0.00,23.6,21.9,00.0,32.6,25.5,09.9,0000.0,0012.73,0005.58,0004.69
2022-12-13 00:32:00,,0809.2,5.02,0.00,23.6,22.0,00.0,32.5,25.5,09.9,0000.0,0012.76,0005.55,0004.69
2022-12-13 00:33:00,,0809.2,4.99,0.00,23.6,22.0,00.0,32.5,25.5,09.9,0000.0,0012.88,0005.54,0004.68
2022-12-13 00:34:00,,0809.2,4.99,0.00,23.6,22.0,00.0,32.5,25.5,09.9,0000.0,0012.61,0005.56,0004.67
2022-12-13 00:35:00,,0809.2,5.01,0.00,23.6,22.0,00.0,32.5,25.5,09.8,0000.0,0012.43,0005.57,0004.65
2022-12-13 00:36:00,,0809.3,5.01,0.00,23.6,22.0,00.0,32.5,25.4,09.8,0000.0,0011.44,0005.62,0004.64
2022-12-13 00:37:00,,0809.3,5.00,0.00,23.6,21.9,00.0,32.5,25.4,09.9,0000.0,0011.20,0005.66,0004.64
2022-12-13 00:38:00,,0809.3,4.98,0.00,23.6,21.9,00.0,32.5,25.4,10.0,0000.0,0011.61,0005.69,0004.63
2022-12-13 00:39:00,,0809.2,5.00,0.00,23.5,21.9,00.0,32.5,25.4,10.0,0000.0,0012.12,0005.76,0004.64
2022-12-13 00:40:00,,0809.3,5.01,0.00,23.5,21.9,00.0,32.5,25.4,10.0,0000.0,0012.88,0005.84,0004.64
2022-12-13 00:41:00,,0809.3,4.99,0.00,23.5,21.9,00.0,32.4,25.4,10.0,0000.0,0013.74,0005.94,0004.64
2022-12-13 00:42:00,,0809.3,5.01,0.00,23.5,22.0,00.0,32.4,25.4,10.0,0000.0,0014.86,0006.01,0004.64
2022-12-13 00:43:00,,0809.3,5.02,0.00,23.5,22.0,00.0,32.4,25.4,10.1,0000.0,0015.46,0006.10,0004.64
2022-12-13 00:44:00,,0809.3,5.00,0.00,23.5,22.0,00.0,32.4,25.4,10.0,0000.0,0015.82,0006.24,0004.66
2022-12-13 00:45:00,,0809.3,4.99,0.00,23.5,21.9,00.0,32.4,25.4,10.0,0000.0,0016.07,0006.27,0004.66
2022-12-13 00:46:00,,0809.3,4.99,0.00,23.5,21.8,00.0,32.4,25.3,09.9,0000.0,0016.46,0006.29,0004.67
2022-12-13 00:47:00,,0809.3,5.02,0.00,23.5,21.7,00.0,32.4,25.3,09.9,0000.0,0017.26,0006.27,0004.66
2022-12-13 00:48:00,,0809.3,5.00,0.00,23.5,21.7,00.0,32.4,25.3,10.0,0000.0,0017.51,0006.27,0004.66
2022-12-13 00:49:00,,0809.3,5.00,0.00,23.4,21.7,00.0,32.4,25.3,10.0,0000.0,0017.07,0006.25,0004.65
2022-12-13 00:50:00,,0809.3,5.01,0.00,23.4,21.8,00.0,32.4,25.3,10.0,0000.0,0016.39,0006.11,0004.63
2022-12-13 00:51:00,,0809.3,5.01,0.00,23.4,21.8,00.0,32.4,25.3,10.0,0000.0,0015.63,0006.02,0004.59
2022-12-13 00:52:00,,0809.3,4.99,0.00,23.4,21.8,00.0,32.4,25.3,10.1,0000.0,0015.23,0005.91,0004.57
2022-12-13 00:53:00,,0809.3,4.99,0.00,23.4,21.7,00.0,32.3,25.3,10.1,0000.0,0014.24,0005.80,0004.56
2022-12-13 00:54:00,,0809.3,5.01,0.00,23.4,21.6,00.0,32.3,25.2,10.1,0000.3,0014.36,0005.70,0004.54
2022-12-13 00:55:00,,0809.3,5.00,0.00,23.4,21.6,00.0,32.3,25.2,10.2,0001.6,0014.23,0005.59,0004.52
2022-12-13 00:56:00,,0809.4,4.99,0.00,23.4,21.6,00.0,32.3,25.2,10.3,0001.2,0013.81,0005.52,0004.50
2022-12-13 00:57:00,,0809.3,5.00,0.00,23.4,21.6,00.0,32.3,25.2,10.3,0000.2,0013.38,0005.56,0004.50
2022-12-13 00:58:00,,0809.4,5.01,0.00,23.4,21.6,00.0,32.3,25.2,10.4,0000.3,0012.44,0005.53,0004.49
2022-12-13 00:59:00,,0809.4,5.00,0.00,23.4,21.7,00.0,32.3,25.2,10.4,0000.1,0013.30,0005.51,0004.49
